Temp
82 79 77 81 81 79 77 75 75 80 78 77 74 74 77 79 80 79 81 82 82 84 88 88 89 90 89 88 86 84 83 83 83 83 82 83 84 85 86 86 84 83 81 78
80 77 82 82 80 79 77 75 76 79 77 77 73 73 78 78 79 81 80 82 84 86 87 88 88 89 90 88 86 84 83 82 82 85 85 85 86 86 87 88 86 85 82 81
77 81 82 81 80 78 80 76 76 74 74 75 74 74 72 78 81 82 84 86 86 86 87 88 88 89 90 87 86 85 83 83 83 84 84 84 84 84 85 85 86 85 82 81
79 83 80 79 79 81 77 79 76 73 73 69 73 66 70 73 74 77 81 83 86 87 88 90 89 89 90 88 89 86 84 83 83 82 83 82 84 83 86 85 82 83 81 83
77 76 78 79 80 81 77 77 75 73 72 71 68 68 74 70 71 75 80 83 84 87 89 90 90 90 92 90 89 87 84 82 84 82 83 84 82 86 86 85 79 79 80 82
79 81 82 83 83 83 80 77 75 73 74 67 64 68 75 73 77 79 82 83 85 85 88 90 92 92 90 91 89 89 83 81 82 82 82 81 82 82 83 82 79 82 84 83
76 79 82 83 79 79 79 77 69 67 67 64 65 64 74 80 82 84 83 84 86 86 86 88 89 89 89 88 87 88 84 81 82 82 82 82 82 82 82 83 82 79 82 82
69 68 77 83 82 80 78 79 71 58 63 67 63 66 79 82 83 85 86 86 86 86 89 89 89 89 88 87 87 88 85 82 82 82 82 82 82 85 85 84 79 83 84 84
68 69 78 79 82 85 74 72 78 70 64 65 71 75 83 80 81 84 85 83 84 85 86 86 89 89 87 89 88 88 86 84 83 85 83 82 82 81 82 81 80 83 82 82
76 68 76 80 83 79 81 80 72 71 61 60 68 67 74 81 81 81 83 85 87 87 87 88 89 90 90 92 93 90 89 86 85 86 84 84 82 83 83 80 81 81 81 81
77 75 75 78 77 78 75 75 71 74 71 66 64 72 82 80 81 82 86 88 89 89 89 89 88 89 90 91 92 91 88 86 84 84 84 84 83 84 82 81 82 81 81 80
78 77 71 75 80 79 80 78 79 72 65 67 69 73 86 81 81 81 85 88 89 89 89 90 90 89 86 88 87 86 87 86 84 84 83 83 83 83 82 82 82 81 80 80
76 72 67 72 76 75 76 76 75 74 73 66 69 74 84 81 80 80 81 83 84 85 86 88 90 88 85 86 85 83 83 84 84 84 84 84 82 83 82 82 82 81 80 79
76 72 71 69 72 76 72 74 74 77 73 69 73 77 83 81 75 77 78 81 84 83 84 84 84 82 82 82 81 81 83 84 84 85 84 83 82 82 83 81 80 81 80 78
78 70 68 70 72 73 73 73 73 73 74 73 73 72 81 75 73 75 77 81 84 85 86 86 85 83 81 81 81 81 83 83 84 82 82 81 82 81 80 77 79 80 79 79
74 68 69 68 70 72 70 70 72 70 68 70 70 73 76 77 77 78 79 80 84 86 86 87 86 84 84 82 82 82 82 82 83 82 82 81 79 78 77 75 77 77 77 76
73 72 69 65 67 69 67 71 71 69 70 72 71 77 76 75 75 76 78 80 81 84 88 89 89 87 86 85 85 83 82 83 81 81 81 78 77 75 72 71 75 75 73 73
71 68 66 66 66 57 69 73 72 71 72 73 73 74 76 75 78 80 82 80 80 82 83 86 91 87 86 87 88 86 84 81 80 79 76 75 73 70 70 71 71 69 68 68
70 70 64 63 62 64 68 71 70 69 73 77 75 76 77 77 79 83 85 83 82 83 84 86 89 89 85 85 84 82 82 81 79 75 72 71 70 70 69 67 67 68 65 65
71 69 69 62 61 58 73 75 76 75 69 79 77 76 75 77 77 79 84 83 84 87 86 86 88 86 85 83 83 81 79 77 75 73 71 72 73 73 72 71 69 67 67 68
65 65 65 62 62 68 72 72 76 64 68 77 77 77 77 76 78 81 82 82 85 87 84 85 85 85 84 83 84 80 77 76 73 72 70 69 73 73 73 72 70 66 63 62
64 63 64 60 59 58 72 72 67 70 75 74 74 75 73 75 76 77 79 80 83 84 85 85 83 82 82 82 80 74 72 70 69 65 64 64 67 70 71 69 68 65 63 62
59 65 66 64 66 68 72 72 77 76 73 75 75 78 77 77 77 78 78 81 81 82 82 84 81 75 74 76 77 69 68 70 69 67 64 65 68 68 70 68 66 63 64 64
62 62 64 63 68 69 73 76 77 77 76 78 79 78 79 77 80 81 82 81 81 79 79 78 75 71 70 73 71 71 72 74 70 66 65 68 67 66 68 68 66 64 67 67
61 61 62 65 69 72 71 73 76 78 79 79 80 78 79 80 80 81 82 81 80 77 75 76 72 70 69 70 71 74 75 73 70 68 67 67 65 65 64 64 65 69 70 70
62 64 65 66 72 71 73 76 76 76 77 78 77 77 79 80 81 82 82 81 80 79 74 70 71 70 71 70 72 75 74 74 72 67 66 64 64 64 63 61 64 52 58 54
MSLP
1006.50 1006.13 1005.48 1005.27 1005.42 1005.41 1005.42 1005.13 1004.69 1004.57 1005.17 1005.33 1005.70 1006.00 1006.26 1006.73 1007.06 1007.27 1007.43 1007.92 1008.27 1008.40 1008.48 1009.14 1009.60 1010.02 1010.65 1011.22 1011.72 1012.22 1012.80 1013.36 1014.03 1014.35 1014.65 1014.69 1014.53 1014.72 1014.85 1014.85 1015.11 1015.19 1015.40 1015.62
1006.08 1005.12 1005.23 1005.33 1005.38 1005.28 1005.25 1004.97 1004.54 1004.66 1005.33 1005.55 1005.68 1005.44 1005.42 1005.84 1005.90 1005.98 1006.60 1007.12 1007.40 1007.73 1008.22 1008.54 1009.04 1009.63 1010.02 1010.49 1011.00 1011.80 1012.20 1012.81 1013.36 1013.83 1014.07 1014.13 1014.24 1014.41 1014.44 1014.39 1014.61 1014.79 1015.00 1015.11
1005.10 1004.74 1004.90 1004.95 1005.06 1004.89 1004.67 1004.82 1004.74 1005.15 1005.46 1005.72 1005.47 1004.64 1005.02 1005.30 1005.59 1005.91 1006.15 1006.42 1006.70 1006.78 1007.26 1007.74 1008.27 1008.84 1009.27 1009.85 1010.42 1010.89 1011.45 1012.08 1012.70 1013.18 1013.79 1014.10 1014.33 1014.43 1014.36 1014.46 1014.47 1014.53 1014.78 1014.93
1005.11 1004.80 1004.81 1004.72 1004.65 1004.74 1004.60 1005.00 1005.04 1005.16 1005.32 1005.64 1006.11 1005.05 1004.57 1004.77 1004.88 1005.12 1005.31 1005.60 1005.73 1006.11 1006.67 1007.08 1007.54 1008.10 1008.52 1008.98 1009.59 1010.18 1010.92 1011.56 1012.22 1012.81 1013.19 1013.33 1013.50 1013.66 1013.96 1014.29 1014.69 1014.76 1014.73 1014.67
1004.62 1004.59 1004.41 1004.25 1004.43 1004.56 1004.88 1005.23 1005.25 1005.32 1005.46 1005.82 1006.02 1005.70 1004.08 1004.36 1003.96 1003.96 1004.22 1004.53 1004.98 1005.28 1005.66 1006.09 1006.63 1007.12 1007.51 1008.31 1008.92 1009.41 1010.19 1010.98 1011.59 1012.24 1012.49 1012.88 1013.17 1013.34 1013.76 1014.18 1014.54 1014.72 1014.82 1014.73
1004.81 1004.83 1004.40 1003.96 1004.40 1004.50 1004.83 1004.97 1005.05 1005.33 1005.16 1005.16 1005.94 1005.65 1003.16 1003.10 1002.68 1002.56 1003.11 1003.60 1004.06 1004.49 1004.89 1005.21 1005.72 1006.38 1006.94 1007.63 1008.25 1008.87 1009.57 1010.04 1010.90 1011.64 1012.14 1012.41 1012.63 1013.07 1013.44 1013.79 1013.98 1014.42 1014.60 1014.85
1004.69 1004.27 1004.15 1004.21 1004.27 1004.67 1004.62 1004.34 1004.25 1004.35 1004.72 1005.01 1005.72 1005.35 1002.78 1002.25 1001.99 1001.94 1002.12 1002.63 1003.20 1003.75 1004.18 1004.41 1004.91 1005.62 1006.32 1007.00 1007.66 1008.28 1009.01 1009.55 1010.25 1010.86 1011.38 1011.83 1012.14 1012.65 1012.93 1013.34 1013.77 1014.24 1014.45 1014.65
1004.22 1003.77 1003.48 1003.40 1003.34 1003.41 1003.89 1003.87 1003.70 1003.76 1004.28 1004.55 1005.07 1003.43 1001.45 1001.51 1001.55 1001.65 1001.88 1002.18 1002.49 1002.90 1003.22 1003.68 1004.26 1005.03 1005.70 1006.26 1006.96 1007.60 1008.24 1008.84 1009.50 1010.06 1010.53 1011.20 1011.78 1012.08 1012.54 1012.97 1013.61 1013.69 1013.94 1014.38
1004.08 1003.68 1003.30 1003.21 1003.08 1003.15 1004.01 1004.11 1004.05 1003.76 1004.84 1004.41 1003.37 1002.18 1001.22 1001.04 1000.87 1001.08 1001.31 1001.58 1001.76 1002.24 1002.83 1003.32 1003.83 1004.40 1004.99 1005.49 1006.04 1006.69 1007.38 1008.06 1008.69 1009.18 1009.95 1010.54 1011.15 1011.60 1011.96 1012.67 1013.20 1013.42 1013.83 1014.32
1003.93 1003.68 1003.30 1003.08 1003.23 1003.64 1003.22 1003.60 1003.89 1003.84 1003.53 1003.02 1002.39 1001.77 1000.75 1000.47 1000.51 1000.82 1000.97 1000.96 1001.20 1001.68 1002.20 1002.70 1003.25 1003.67 1004.17 1004.57 1005.19 1005.97 1006.65 1007.28 1007.77 1008.42 1009.24 1009.73 1010.32 1010.85 1011.45 1012.18 1012.64 1013.17 1013.71 1014.23
1003.99 1003.78 1003.33 1003.20 1002.81 1002.68 1003.53 1003.37 1003.73 1003.59 1003.43 1002.50 1001.77 1000.54 1000.29 1000.58 1000.68 1000.61 1000.54 1000.73 1000.88 1001.21 1001.57 1002.09 1002.67 1003.15 1003.69 1004.21 1004.73 1005.24 1005.99 1006.68 1007.23 1007.80 1008.57 1009.11 1009.72 1010.39 1011.15 1011.62 1012.34 1013.02 1013.60 1014.18
1003.93 1003.52 1002.92 1002.68 1002.86 1003.11 1002.80 1002.76 1002.71 1002.53 1003.11 1003.01 1002.11 1000.37 1000.20 1000.92 1001.55 1001.74 1001.37 1001.05 1000.92 1001.02 1001.36 1001.61 1001.98 1002.71 1003.35 1003.76 1004.26 1004.69 1005.23 1005.92 1006.46 1007.04 1007.84 1008.59 1009.48 1010.05 1010.53 1011.26 1012.12 1012.86 1013.35 1013.90
1003.98 1003.68 1003.01 1002.53 1003.02 1003.18 1002.67 1002.78 1002.94 1002.67 1002.72 1002.45 1001.57 1000.30 1000.63 1001.43 1001.87 1002.21 1002.09 1001.85 1001.74 1001.79 1001.71 1001.64 1001.70 1002.07 1002.63 1003.14 1003.72 1004.21 1004.76 1005.34 1006.06 1006.67 1007.48 1008.20 1008.97 1009.49 1010.14 1010.88 1011.73 1012.66 1013.43 1014.21
1003.74 1003.56 1002.95 1002.48 1002.37 1002.40 1002.53 1002.68 1002.79 1002.35 1002.17 1002.35 1001.65 1000.88 1000.52 1001.19 1002.09 1002.78 1002.58 1002.12 1001.59 1001.47 1001.72 1001.96 1001.88 1001.95 1002.28 1002.74 1003.20 1003.84 1004.37 1005.04 1005.67 1006.38 1007.15 1007.67 1008.03 1008.63 1009.56 1010.72 1011.51 1012.14 1013.12 1014.05
1003.97 1003.47 1003.64 1003.29 1003.03 1002.76 1002.64 1002.72 1002.86 1002.70 1002.54 1002.12 1002.13 1001.93 1001.77 1002.72 1002.99 1002.83 1002.25 1002.03 1001.45 1001.23 1001.22 1001.38 1001.87 1002.19 1002.17 1002.50 1002.96 1003.59 1004.21 1004.69 1005.17 1005.94 1006.61 1007.02 1007.75 1008.74 1009.80 1010.99 1011.82 1012.56 1012.85 1013.52
1004.17 1003.90 1003.91 1003.65 1003.64 1003.39 1002.92 1003.14 1003.20 1003.40 1003.39 1003.13 1002.94 1002.48 1003.06 1003.46 1003.32 1002.81 1002.07 1001.37 1000.80 1000.85 1000.77 1000.86 1001.16 1001.49 1001.93 1002.01 1002.36 1002.99 1003.73 1004.29 1004.79 1005.45 1006.15 1007.25 1008.09 1008.99 1009.93 1011.07 1012.03 1013.08 1013.16 1013.51
1004.38 1003.98 1004.04 1004.03 1004.35 1004.00 1003.62 1003.37 1003.43 1003.67 1003.78 1003.40 1003.00 1002.81 1003.26 1003.20 1003.20 1002.91 1002.44 1001.71 1001.06 1000.32 999.84 1000.04 1000.17 1000.45 1001.10 1001.76 1002.50 1002.49 1003.30 1004.29 1005.06 1005.71 1006.56 1007.62 1008.42 1009.33 1010.45 1011.62 1012.19 1012.93 1013.09 1013.80
1004.91 1004.73 1004.53 1004.46 1004.77 1004.44 1004.00 1004.11 1004.07 1003.85 1003.63 1003.61 1003.30 1003.29 1003.56 1003.52 1003.28 1002.97 1002.63 1002.12 1001.29 1000.56 1000.01 999.70 999.67 999.95 1000.30 1000.97 1001.73 1002.62 1003.32 1003.99 1004.59 1005.48 1006.74 1007.68 1008.34 1009.20 1010.20 1011.09 1012.37 1013.45 1013.20 1013.51
1005.71 1005.13 1004.97 1004.78 1004.54 1004.65 1004.19 1004.04 1004.11 1003.92 1003.11 1003.06 1002.85 1003.08 1003.34 1003.35 1003.29 1002.59 1002.40 1002.19 1001.63 1000.80 1000.01 999.48 999.58 999.80 1000.40 1000.67 1001.44 1002.22 1003.04 1003.86 1004.82 1005.90 1006.63 1007.27 1007.84 1008.40 1008.54 1008.16 1010.68 1012.86 1013.95 1014.32
1005.90 1005.76 1005.31 1005.18 1004.14 1003.59 1003.11 1003.61 1004.11 1004.25 1003.22 1002.52 1003.19 1003.41 1003.45 1003.45 1002.72 1002.73 1002.58 1002.34 1001.69 1000.84 1000.24 999.71 999.55 999.98 1000.29 1000.85 1001.66 1002.13 1002.84 1003.94 1004.98 1005.66 1006.17 1006.58 1006.46 1007.21 1008.32 1008.62 1009.64 1011.85 1013.29 1014.10
1006.04 1005.91 1005.50 1005.33 1004.71 1003.90 1003.88 1004.33 1004.54 1004.45 1004.67 1004.05 1004.09 1004.10 1003.83 1003.70 1003.81 1003.53 1003.54 1003.03 1002.35 1001.45 1000.94 1000.49 1000.21 1000.47 1000.87 1001.64 1002.16 1003.05 1004.17 1005.11 1005.84 1006.92 1008.46 1008.05 1007.77 1009.30 1009.52 1010.14 1011.07 1012.06 1013.38 1014.11
1006.65 1006.28 1006.05 1006.05 1005.46 1005.08 1004.86 1005.07 1004.86 1005.28 1004.93 1004.98 1004.86 1004.73 1004.56 1004.55 1004.27 1004.05 1003.95 1003.37 1002.53 1002.11 1001.38 1001.25 1001.05 1001.31 1001.68 1002.21 1002.86 1003.64 1004.49 1005.51 1005.56 1006.77 1005.86 1005.36 1009.11 1009.06 1010.45 1010.91 1011.42 1012.31 1013.46 1014.20
1007.94 1007.22 1006.63 1006.64 1005.97 1005.74 1005.55 1005.26 1005.02 1005.13 1005.09 1005.15 1005.00 1004.68 1004.60 1004.56 1004.13 1003.92 1003.50 1002.98 1002.54 1002.46 1002.34 1001.91 1002.10 1002.63 1002.83 1002.95 1003.44 1004.32 1004.77 1004.99 1005.39 1005.53 1005.46 1005.86 1006.91 1008.28 1010.78 1010.84 1011.43 1012.65 1013.37 1013.86
1008.12 1008.05 1007.40 1006.92 1006.12 1005.76 1005.51 1005.36 1005.03 1004.98 1004.91 1004.90 1004.77 1004.51 1004.42 1004.38 1003.96 1003.45 1003.24 1002.97 1002.79 1002.95 1002.56 1002.81 1002.95 1003.10 1003.98 1004.03 1004.19 1004.58 1004.34 1004.71 1005.18 1005.76 1006.52 1007.37 1007.39 1008.60 1009.75 1010.00 1011.12 1012.20 1012.62 1013.58
1008.70 1008.47 1007.55 1006.70 1005.96 1005.46 1005.55 1005.45 1005.16 1004.72 1004.50 1004.29 1004.28 1004.20 1003.96 1003.80 1003.51 1003.30 1003.15 1003.07 1003.05 1003.16 1003.56 1003.20 1003.38 1003.33 1004.33 1005.17 1004.80 1004.75 1004.85 1005.42 1005.81 1005.96 1006.50 1007.22 1007.96 1008.73 1009.49 1010.61 1011.00 1011.65 1012.50 1012.99
1008.30 1007.46 1007.13 1005.92 1005.85 1005.75 1005.12 1005.06 1005.05 1004.70 1004.27 1003.96 1003.82 1003.64 1003.46 1003.22 1003.01 1002.84 1002.88 1003.02 1003.12 1003.11 1003.33 1003.60 1003.91 1003.48 1004.66 1005.30 1004.96 1005.15 1005.38 1005.54 1006.01 1006.32 1006.73 1007.28 1007.99 1009.08 1009.65 1010.54 1011.82 1012.50 1012.52 1013.18
Wind_Speed
5 6 10 5 2 2 5 8 12 10 2 3 3 5 13 14 16 16 16 17 17 18 19 16 16 15 14 14 14 15 14 13 9 8 7 7 8 7 7 7 8 8 7 6
6 15 6 4 5 4 4 9 11 4 2 3 2 10 12 19 21 21 20 18 18 18 17 17 16 15 17 17 16 14 15 14 12 9 7 5 4 5 6 5 5 6 6 6
14 5 5 3 3 5 6 7 10 10 1 3 9 7 4 10 15 16 18 19 19 20 19 18 17 18 18 17 17 16 16 14 13 13 7 5 3 3 4 3 4 4 3 3
8 4 7 3 5 4 8 6 10 2 3 4 6 6 4 5 11 14 18 18 20 21 19 18 17 16 18 18 16 16 15 15 14 14 11 11 8 7 4 4 2 2 4 4
5 4 9 12 8 4 2 3 5 4 3 3 1 5 4 1 8 14 17 18 16 18 21 20 20 19 19 16 15 15 14 13 13 14 12 11 11 7 5 3 3 4 3 4
6 1 2 3 4 2 9 2 3 2 2 4 4 5 5 4 5 7 15 18 19 18 19 20 19 18 17 15 15 14 14 14 14 14 15 14 12 10 7 5 5 4 4 4
4 10 4 4 7 3 5 3 3 2 1 4 2 5 10 7 7 5 10 12 18 18 18 18 19 17 15 15 16 14 15 14 15 16 15 15 13 11 11 9 5 7 5 5
9 7 10 9 14 7 8 6 4 4 4 4 1 6 5 2 1 8 7 7 10 17 18 18 18 17 16 16 16 16 15 14 15 16 14 12 12 9 8 8 6 7 6 6
6 6 1 5 3 8 6 7 3 2 2 4 2 6 10 4 8 11 8 6 8 12 15 17 16 16 16 17 17 17 15 15 15 17 12 13 12 12 10 10 9 8 7 7
5 4 0 2 4 5 4 10 5 1 4 7 4 5 7 6 3 4 6 8 9 11 13 14 15 16 16 17 16 16 16 16 16 14 13 13 14 13 11 11 11 11 10 9
7 5 3 3 5 8 5 4 3 1 2 4 4 4 4 4 5 9 9 8 9 11 11 12 13 13 15 14 15 17 16 15 14 14 12 12 12 13 12 11 11 11 11 10
6 3 9 13 1 1 0 2 6 5 6 1 3 7 2 2 5 7 10 8 8 8 8 10 12 12 13 15 14 15 14 15 15 13 13 13 11 13 13 12 13 12 12 11
8 6 4 4 4 3 5 5 3 5 1 6 4 5 5 7 8 7 6 8 9 11 9 9 10 12 14 15 14 14 14 14 13 14 13 12 13 14 14 14 14 13 12 10
7 4 5 7 1 1 7 7 6 4 4 7 5 7 13 13 13 11 8 7 7 8 9 11 11 11 12 12 12 12 13 13 13 13 13 14 15 16 15 14 13 14 13 12
4 1 2 2 4 4 5 7 8 6 2 5 3 6 9 11 15 13 15 7 6 9 10 10 10 10 11 11 11 10 11 12 14 14 14 15 14 15 14 13 13 13 14 13
2 3 2 2 4 2 5 5 7 3 2 4 5 11 4 12 10 10 10 10 8 8 9 10 10 10 10 11 13 12 13 13 14 15 14 12 14 14 14 13 12 11 12 12
3 3 1 2 3 5 5 6 6 4 4 3 4 4 13 13 10 6 10 9 10 12 10 9 10 12 10 10 10 12 12 11 12 11 11 13 14 14 11 9 11 12 12 11
2 1 2 3 4 5 4 1 2 5 5 9 6 8 9 11 10 9 6 8 10 11 11 11 7 8 11 10 10 9 11 13 14 13 12 13 14 15 13 12 8 7 8 11
3 2 2 4 4 4 3 7 6 8 6 14 8 5 5 6 6 7 10 11 10 12 12 8 6 4 8 11 11 12 12 12 12 13 14 16 17 18 18 20 14 10 8 7
5 3 4 3 9 10 3 7 5 3 7 12 8 3 5 4 4 5 13 16 15 15 10 5 2 5 9 11 12 13 13 14 14 14 15 17 19 18 14 13 15 12 11 10
0 1 4 4 5 4 2 4 7 6 5 4 1 2 4 4 5 11 14 17 15 12 12 8 6 2 3 6 9 8 9 9 10 12 16 20 2 4 5 11 12 12 9 8
4 4 3 1 3 5 4 7 4 4 5 5 5 6 7 9 11 12 14 15 15 13 9 8 6 7 6 6 8 10 10 14 13 13 13 16 7 7 5 13 12 11 10 9
4 3 1 5 3 2 2 4 6 5 6 3 4 6 7 8 10 12 13 14 11 7 6 6 7 7 5 7 10 11 12 15 11 5 12 15 16 14 10 11 12 9 9 8
3 2 2 4 2 5 5 7 9 9 7 8 9 11 8 7 9 11 11 12 8 4 4 5 7 8 4 5 8 11 15 15 11 8 9 11 14 13 12 10 10 8 9 8
2 4 2 5 6 6 4 5 5 9 12 11 8 8 10 7 6 4 6 8 6 4 5 4 8 8 5 3 6 11 13 11 10 9 8 9 9 10 10 7 7 7 8 9
6 5 4 4 1 5 10 3 7 12 13 11 11 8 7 9 7 6 6 6 5 2 2 3 2 8 9 9 9 8 4 5 8 10 8 8 9 8 9 8 7 12 6 10
Wind_Direction
181 213 222 234 213 302 279 279 292 300 146 189 242 234 188 195 202 200 205 197 202 211 216 215 220 218 212 211 207 202 201 207 204 198 208 231 236 239 246 248 252 254 253 250
202 233 196 144 155 258 253 290 312 324 22 262 289 276 224 197 209 205 197 205 209 212 216 223 220 214 213 212 213 207 209 200 203 207 212 219 221 239 249 262 270 261 270 257
225 243 159 208 183 270 281 292 320 313 42 102 317 277 194 216 225 218 217 208 209 213 215 218 218 213 216 217 211 210 205 202 201 205 207 203 208 235 242 237 244 245 222 199
248 194 204 191 259 229 290 336 310 337 267 331 354 305 272 224 218 222 214 213 212 213 213 216 222 218 214 218 214 213 208 203 200 195 203 209 214 224 238 240 99 168 169 142
205 198 194 221 245 194 360 31 67 87 101 275 135 270 270 284 244 221 212 214 217 217 216 213 212 217 214 212 210 209 205 200 197 194 204 207 220 222 216 172 154 144 145 130
249 320 243 198 170 238 167 128 74 89 339 286 68 286 298 218 237 215 214 216 214 211 214 216 215 216 218 211 212 205 202 199 192 192 203 208 211 207 212 199 206 176 160 146
247 242 216 184 232 129 184 196 289 252 189 274 111 242 266 258 250 221 185 213 212 207 203 210 213 210 212 204 208 205 202 202 197 198 202 212 210 206 215 205 186 175 171 172
211 229 195 180 215 216 197 231 233 265 261 313 319 247 311 254 291 229 235 239 205 206 205 207 207 210 209 205 203 202 198 202 197 202 205 203 205 205 211 199 175 188 183 171
180 247 216 211 153 198 152 208 351 206 123 261 270 269 276 249 251 242 239 204 191 197 200 202 204 206 208 209 205 201 198 205 199 204 193 196 198 196 193 177 174 179 172 160
192 265 56 87 172 72 243 137 176 191 258 270 228 273 273 297 220 206 221 211 191 183 192 199 206 207 208 210 210 206 207 204 205 201 196 200 198 194 184 170 177 177 166 163
171 234 183 233 200 177 154 181 77 156 262 281 296 272 223 282 249 209 217 206 202 204 204 203 204 209 210 209 208 209 208 204 198 197 194 196 196 188 178 174 175 172 163 161
194 209 239 249 138 344 260 225 201 223 183 249 311 274 164 45 354 316 284 262 228 222 231 228 217 206 203 209 209 206 201 200 198 187 189 193 189 182 178 172 172 168 165 163
172 211 224 214 169 148 208 178 173 107 141 185 239 277 113 77 54 21 322 306 268 273 261 238 218 210 211 206 207 204 197 198 189 184 186 186 184 183 176 172 169 167 157 156
151 155 239 250 281 121 169 170 176 216 198 154 235 297 299 350 0 356 327 300 279 246 241 262 248 234 214 200 191 200 200 193 187 186 188 185 184 181 174 168 164 163 158 156
251 208 221 306 257 194 140 161 172 209 152 237 54 263 331 344 332 323 306 273 245 227 232 236 255 260 209 198 194 196 201 190 187 182 187 189 179 170 161 154 160 163 162 158
177 145 168 57 8 297 138 129 139 149 159 264 293 285 59 332 318 318 319 305 280 195 216 223 224 232 241 208 194 187 192 195 183 186 189 175 164 158 148 143 155 166 159 155
321 136 146 138 3 326 191 188 178 145 197 192 251 316 332 332 334 343 335 334 308 289 278 220 217 213 205 214 218 194 183 173 180 183 171 165 153 134 125 129 158 174 157 148
205 88 101 116 136 229 57 0 295 261 206 210 245 274 307 306 297 287 318 316 318 312 296 282 240 203 189 187 194 181 166 171 175 168 155 146 134 124 123 134 145 172 151 149
301 170 161 222 187 338 235 211 205 205 226 215 217 236 287 291 271 70 20 358 342 317 301 284 280 233 177 173 172 168 169 170 165 154 147 146 142 143 153 158 163 160 148 137
92 89 262 165 227 224 213 160 151 166 262 195 208 289 351 299 190 48 350 347 348 353 347 339 42 173 171 168 173 170 164 164 168 163 162 158 160 164 172 163 149 145 155 150
167 44 247 202 265 290 5 112 156 207 357 11 216 356 17 45 1 322 334 340 341 355 12 32 60 60 177 160 153 160 150 144 112 102 74 8 31 115 138 153 143 128 136 137
232 202 200 166 230 242 118 121 236 29 351 10 357 348 342 336 326 321 329 331 326 337 19 29 47 59 87 137 144 132 121 115 123 128 120 115 194 283 141 135 136 134 144 151
237 288 344 235 23 348 290 293 295 297 282 291 295 298 314 322 316 317 328 340 309 329 359 50 69 76 93 126 137 126 143 136 147 156 130 172 165 172 175 151 141 137 154 160
205 185 243 278 143 232 273 294 286 315 296 281 263 273 284 293 306 326 347 353 345 333 88 73 93 92 42 127 140 144 163 164 143 144 158 170 140 150 157 146 146 155 172 170
45 161 235 257 270 283 190 229 296 310 319 314 313 261 252 255 279 296 334 345 343 342 275 163 134 117 136 192 163 179 175 153 140 164 153 134 120 136 129 128 145 167 179 177
189 172 224 286 296 280 288 287 310 312 318 317 329 308 253 236 243 274 293 313 302 317 349 338 196 135 170 188 175 183 192 201 142 135 134 136 133 145 135 131 121 41 123 138